StationID,Date,MaxTemp,MinTemp,Precipitation,Snowfall,SnowDepth
"USC00504104","2003-12-09",26.96,17.96,0.00,0.00,
"USC00504104","2003-12-10",28.94,28.04,8.00,8.00,
"USC00504104","2003-12-11",35.06,33.08,46.00,0.00,279.00
"USC00504104","2003-12-12",33.98,30.92,28.00,0.00,254.00
"USC00504104","2003-12-13",37.04,24.98,0.00,0.00,254.00
"USC00504104","2003-12-14",35.06,30.92,3.00,3.00,254.00
"USC00504104","2003-12-15",35.06,32.00,51.00,48.00,279.00
"USC00504104","2003-12-16",35.96,35.06,330.00,0.00,229.00
"USC00504104","2003-12-17",35.06,32.00,33.00,8.00,254.00
"USC00504104","2003-12-18",37.94,37.04,211.00,0.00,203.00
"USC00504104","2003-12-19",35.96,33.08,226.00,0.00,178.00
"USC00504104","2003-12-20",37.94,35.06,97.00,0.00,178.00
"USC00504104","2003-12-21",41.00,39.92,340.00,0.00,127.00
"USC00504104","2003-12-22",39.02,33.98,0.00,0.00,76.00
"USC00504104","2003-12-23",35.06,33.08,0.00,0.00,51.00
"USC00504104","2003-12-24",30.02,24.98,130.00,38.00,76.00
"USC00504104","2003-12-26",21.02,17.96,0.00,0.00,76.00
"USC00504104","2003-12-27",23.00,21.02,0.00,0.00,76.00
"USC00504104","2003-12-28",26.06,21.02,0.00,0.00,76.00
"USC00504104","2003-12-29",33.08,26.06,0.00,33.00,102.00
"USC00504104","2003-12-30",33.08,26.06,0.00,0.00,102.00
"USC00504104","2003-12-31",33.98,32.00,0.00,0.00,102.00
"USC00504104","2004-01-01",33.08,24.98,0.00,0.00,102.00
"USC00504104","2004-01-02",26.96,15.08,0.00,0.00,102.00
"USC00504104","2004-01-03",23.00,14.00,0.00,0.00,76.00
"USC00504104","2004-01-04",21.92,15.08,0.00,0.00,76.00
"USC00504104","2004-01-05",23.00,12.92,0.00,0.00,51.00
"USC00504104","2004-01-06",28.04,15.98,0.00,0.00,51.00
"USC00504104","2004-01-07",21.02,17.06,109.00,152.00,203.00
"USC00504104","2004-01-08",30.02,19.94,25.00,64.00,279.00
"USC00504104","2004-01-09",32.00,30.92,25.00,0.00,254.00
"USC00504104","2004-01-10",35.96,32.00,81.00,0.00,203.00
"USC00504104","2004-01-11",37.04,32.00,5.00,0.00,178.00
"USC00504104","2004-01-12",37.04,32.00,178.00,0.00,152.00
"USC00504104","2004-01-13",39.02,35.06,386.00,0.00,127.00
"USC00504104","2004-01-14",37.04,30.92,279.00,13.00,127.00
"USC00504104","2004-01-15",33.08,26.06,64.00,147.00,279.00
"USC00504104","2004-01-16",30.92,26.06,130.00,152.00,279.00
"USC00504104","2004-01-17",39.02,30.92,89.00,0.00,229.00
"USC00504104","2004-01-18",37.94,30.02,84.00,0.00,152.00
"USC00504104","2004-01-19",37.94,30.02,185.00,0.00,102.00
"USC00504104","2004-01-20",41.00,37.04,160.00,0.00,76.00
"USC00504104","2004-01-21",42.08,35.96,81.00,0.00,25.00
"USC00504104","2004-01-22",37.94,35.06,74.00,0.00,25.00
"USC00504104","2004-01-23",35.96,24.98,0.00,0.00,25.00
"USC00504104","2004-01-24",24.08,10.04,0.00,0.00,25.00
"USC00504104","2004-01-25",10.04,3.92,0.00,0.00,25.00
"USC00504104","2004-01-26",10.04,3.02,0.00,0.00,25.00
"USC00504104","2004-01-27",14.00,10.04,0.00,0.00,25.00
"USC00504104","2004-01-28",15.98,12.02,20.00,25.00,51.00
"USC00504104","2004-01-29",19.04,10.94,13.00,13.00,51.00
"USC00504104","2004-01-30",26.06,17.96,64.00,114.00,152.00
"USC00504104","2004-01-31",32.00,26.06,30.00,33.00,178.00
"USC00504104","2004-02-01",33.98,24.98,8.00,8.00,178.00
"USC00504104","2004-02-02",26.06,21.02,0.00,0.00,178.00
"USC00504104","2004-02-03",30.92,23.00,81.00,114.00,279.00
"USC00504104","2004-02-04",37.04,30.92,259.00,0.00,152.00
"USC00504104","2004-02-05",,35.06,107.00,0.00,102.00
"USC00504104","2004-02-06",39.02,32.00,64.00,51.00,76.00
"USC00504104","2004-02-07",37.04,33.08,76.00,0.00,51.00
"USC00504104","2004-02-08",42.08,37.04,462.00,0.00,0.00
"USC00504104","2004-02-09",39.92,37.04,185.00,0.00,0.00
"USC00504104","2004-02-10",42.08,37.94,15.00,0.00,0.00
"USC00504104","2004-02-11",42.08,35.96,267.00,0.00,0.00
"USC00504104","2004-02-12",44.06,33.98,3.00,0.00,0.00
"USC00504104","2004-02-13",46.94,35.06,15.00,0.00,0.00
"USC00504104","2004-02-14",41.00,28.94,0.00,0.00,0.00
"USC00504104","2004-02-15",35.96,30.92,5.00,8.00,0.00
"USC00504104","2004-02-16",37.04,30.92,0.00,0.00,0.00
"USC00504104","2004-02-17",39.92,32.00,5.00,0.00,0.00
"USC00504104","2004-02-18",37.94,35.06,132.00,0.00,0.00
"USC00504104","2004-02-19",39.02,37.04,229.00,0.00,0.00
"USC00504104","2004-02-20",42.98,39.02,152.00,0.00,0.00
"USC00504104","2004-02-21",44.06,37.94,213.00,0.00,0.00
"USC00504104","2004-02-22",,37.04,5.00,0.00,0.00
"USC00504104","2004-02-23",41.00,32.00,8.00,0.00,0.00
"USC00504104","2004-02-24",39.92,28.04,0.00,0.00,0.00
"USC00504104","2004-02-25",39.02,26.06,0.00,0.00,0.00
"USC00504104","2004-02-26",37.94,24.98,0.00,0.00,0.00
"USC00504104","2004-02-27",37.04,26.96,0.00,0.00,0.00
"USC00504104","2004-02-28",39.92,26.96,0.00,0.00,0.00
"USC00504104","2004-02-29",37.94,24.98,0.00,0.00,0.00
"USC00504104","2004-03-01",37.04,24.98,0.00,0.00,0.00
"USC00504104","2004-03-02",35.96,28.94,10.00,10.00,0.00
"USC00504104","2004-03-03",33.98,30.92,66.00,89.00,102.00
"USC00504104","2004-03-04",35.06,32.00,69.00,13.00,102.00
"USC00504104","2004-03-05",35.96,32.00,13.00,25.00,102.00
"USC00504104","2004-03-06",37.04,33.08,79.00,0.00,51.00
"USC00504104","2004-03-07",37.94,33.98,163.00,0.00,0.00
"USC00504104","2004-03-08",44.06,30.92,211.00,13.00,0.00
"USC00504104","2004-03-09",35.96,33.08,71.00,0.00,0.00
"USC00504104","2004-03-10",37.04,35.06,157.00,0.00,0.00
"USC00504104","2004-03-11",39.92,33.08,10.00,0.00,0.00
"USC00504104","2004-03-12",39.02,30.92,0.00,0.00,0.00
"USC00504104","2004-03-13",37.04,28.94,0.00,0.00,0.00
"USC00504104","2004-03-14",35.96,33.08,89.00,0.00,0.00
"USC00504104","2004-03-15",37.04,32.00,,,
"USC00504104","2004-03-16",37.04,,,,
"USC00504104","2004-03-17",35.96,,,0.00,51.00
"USC00504104","2004-03-18",37.94,24.08,0.00,0.00,0.00
"USC00504104","2004-03-19",37.04,28.04,0.00,0.00,0.00
"USC00504104","2004-03-20",41.00,24.08,0.00,0.00,0.00
"USC00504104","2004-03-21",46.04,33.08,0.00,0.00,0.00
"USC00504104","2004-03-22",35.96,26.06,13.00,13.00,0.00
"USC00504104","2004-03-23",44.06,30.02,0.00,0.00,0.00
"USC00504104","2004-03-24",44.06,30.92,127.00,0.00,0.00
"USC00504104","2004-03-25",42.08,35.06,137.00,0.00,0.00
"USC00504104","2004-03-26",42.08,35.06,48.00,0.00,0.00
"USC00504104","2004-03-27",42.98,35.96,91.00,0.00,0.00
"USC00504104","2004-03-28",42.98,35.96,23.00,0.00,0.00
"USC00504104","2004-03-29",37.94,32.00,264.00,114.00,127.00
"USC00504104","2004-03-30",37.94,30.02,119.00,114.00,76.00
"USC00504104","2004-03-31",37.04,30.02,13.00,89.00,0.00
"USC00504104","2004-04-01",35.96,32.00,109.00,0.00,0.00
"USC00504104","2004-04-02",44.06,39.02,284.00,0.00,0.00
"USC00504104","2004-04-03",37.94,37.04,122.00,0.00,0.00
"USC00504104","2004-04-04",37.04,35.96,10.00,0.00,0.00
"USC00504104","2004-04-05",50.00,33.08,0.00,0.00,0.00
"USC00504104","2004-04-06",51.98,33.08,0.00,0.00,0.00
"USC00504104","2004-04-07",50.00,37.94,107.00,0.00,0.00
"USC00504104","2004-04-08",53.96,33.98,3.00,0.00,0.00
"USC00504104","2004-04-09",44.96,35.06,36.00,0.00,0.00
"USC00504104","2004-04-10",50.00,35.06,0.00,0.00,0.00
"USC00504104","2004-04-11",55.94,33.08,13.00,0.00,0.00
"USC00504104","2004-04-12",44.96,39.02,15.00,0.00,0.00
"USC00504104","2004-04-13",46.94,39.02,0.00,0.00,0.00
"USC00504104","2004-04-14",46.94,35.06,0.00,0.00,0.00
"USC00504104","2004-04-15",51.08,33.08,0.00,0.00,0.00
"USC00504104","2004-04-16",51.08,28.04,5.00,0.00,0.00
"USC00504104","2004-04-17",42.08,37.04,76.00,0.00,0.00
"USC00504104","2004-04-18",44.06,35.06,3.00,0.00,0.00
"USC00504104","2004-04-19",51.98,30.92,0.00,0.00,0.00
"USC00504104","2004-04-20",57.92,30.02,0.00,0.00,0.00
"USC00504104","2004-04-21",57.92,33.98,10.00,0.00,0.00
"USC00504104","2004-04-22",46.04,35.06,97.00,0.00,0.00
"USC00504104","2004-04-23",42.08,35.06,127.00,0.00,0.00
"USC00504104","2004-04-24",44.06,37.94,178.00,0.00,0.00
"USC00504104","2004-04-25",44.06,39.92,284.00,0.00,0.00
"USC00504104","2004-04-26",46.04,39.92,,,
"USC00504104","2004-04-27",48.92,37.94,,,
"USC00504104","2004-04-28",51.98,39.02,0.00,0.00,0.00
"USC00504104","2004-04-29",62.06,33.08,0.00,0.00,0.00
"USC00504104","2004-04-30",71.96,37.94,0.00,0.00,0.00
"USC00504104","2004-05-01",59.00,44.96,33.00,0.00,0.00
"USC00504104","2004-05-02",57.92,44.06,3.00,0.00,0.00
"USC00504104","2004-05-03",66.02,42.98,0.00,0.00,0.00
"USC00504104","2004-05-04",62.96,41.00,0.00,0.00,0.00
"USC00504104","2004-05-05",64.04,39.92,0.00,0.00,0.00
"USC00504104","2004-05-06",64.94,42.08,,,0.00
"USC00504104","2004-05-07",62.96,39.02,,,0.00
"USC00504104","2004-05-08",57.02,44.96,,,0.00
"USC00504104","2004-05-09",48.02,42.08,0.00,0.00,0.00
"USC00504104","2004-05-10",64.94,42.98,0.00,0.00,0.00
"USC00504104","2004-05-11",68.00,37.94,0.00,0.00,0.00
"USC00504104","2004-05-12",69.98,41.00,0.00,0.00,0.00
"USC00504104","2004-05-13",73.04,41.00,0.00,0.00,0.00
"USC00504104","2004-05-14",68.00,44.96,0.00,0.00,0.00
"USC00504104","2004-05-15",66.92,39.92,0.00,0.00,0.00
"USC00504104","2004-05-16",62.96,46.94,0.00,0.00,0.00
"USC00504104","2004-05-17",59.00,46.94,0.00,0.00,0.00
"USC00504104","2004-05-18",69.08,48.02,0.00,0.00,0.00
"USC00504104","2004-05-19",69.08,42.08,0.00,0.00,0.00
"USC00504104","2004-05-20",77.00,44.06,0.00,0.00,0.00
"USC00504104","2004-05-21",71.96,44.96,0.00,0.00,0.00
"USC00504104","2004-05-22",73.04,,0.00,0.00,0.00
"USC00504104","2004-05-23",71.96,44.06,0.00,0.00,0.00
"USC00504104","2004-05-24",68.00,51.08,170.00,0.00,0.00
"USC00504104","2004-05-25",53.06,48.92,152.00,0.00,0.00
"USC00504104","2004-05-26",53.06,46.94,28.00,0.00,0.00
"USC00504104","2004-05-27",60.98,44.06,0.00,0.00,0.00
"USC00504104","2004-05-28",59.00,44.96,0.00,0.00,0.00
"USC00504104","2004-05-29",62.96,,10.00,0.00,0.00
"USC00504104","2004-05-30",62.06,46.04,0.00,0.00,0.00
"USC00504104","2004-05-31",59.00,46.94,33.00,0.00,0.00
"USC00504104","2004-06-01",57.92,46.04,,0.00,0.00
"USC00504104","2004-06-02",53.96,46.04,,0.00,0.00
"USC00504104","2004-06-03",68.00,37.94,0.00,0.00,0.00
"USC00504104","2004-06-04",66.92,44.06,18.00,0.00,0.00
"USC00504104","2004-06-05",64.04,51.08,10.00,0.00,0.00
"USC00504104","2004-06-06",73.04,50.00,0.00,0.00,0.00
"USC00504104","2004-06-07",73.94,50.00,0.00,0.00,0.00
"USC00504104","2004-06-08",57.02,48.02,48.00,0.00,0.00
"USC00504104","2004-06-09",53.96,46.04,53.00,0.00,0.00
"USC00504104","2004-06-10",60.08,44.96,8.00,0.00,0.00
"USC00504104","2004-06-11",57.92,46.04,3.00,0.00,0.00
"USC00504104","2004-06-12",68.00,48.02,0.00,0.00,0.00
"USC00504104","2004-06-13",60.08,46.94,91.00,0.00,0.00
"USC00504104","2004-06-14",51.98,48.02,28.00,0.00,0.00
"USC00504104","2004-06-15",57.02,48.02,0.00,0.00,0.00
"USC00504104","2004-06-16",69.98,42.98,0.00,0.00,0.00
"USC00504104","2004-06-17",77.00,48.02,0.00,0.00,0.00
"USC00504104","2004-06-18",87.08,50.00,0.00,0.00,0.00
"USC00504104","2004-06-19",87.98,53.06,0.00,0.00,0.00
"USC00504104","2004-06-20",87.98,53.06,0.00,0.00,0.00
"USC00504104","2004-06-21",87.08,51.98,0.00,0.00,0.00
"USC00504104","2004-06-22",87.08,53.06,0.00,0.00,0.00
"USC00504104","2004-06-23",87.08,53.96,0.00,0.00,0.00
"USC00504104","2004-06-24",84.92,55.04,0.00,0.00,0.00
"USC00504104","2004-06-25",84.92,53.96,0.00,0.00,0.00
"USC00504104","2004-06-26",75.92,55.04,0.00,0.00,0.00
"USC00504104","2004-06-27",62.96,55.94,56.00,0.00,0.00
"USC00504104","2004-06-28",60.98,53.96,0.00,0.00,0.00
"USC00504104","2004-06-29",66.02,53.96,0.00,0.00,0.00
"USC00504104","2004-06-30",64.94,55.04,20.00,0.00,0.00
"USC00504104","2004-07-01",62.96,53.96,23.00,0.00,0.00
"USC00504104","2004-07-02",68.00,51.08,41.00,0.00,0.00
"USC00504104","2004-07-03",62.96,55.04,3.00,0.00,0.00
"USC00504104","2004-07-04",64.94,53.06,53.00,0.00,0.00
"USC00504104","2004-07-05",64.04,53.96,33.00,0.00,0.00
"USC00504104","2004-07-06",57.92,53.06,0.00,0.00,0.00
"USC00504104","2004-07-07",69.08,51.08,5.00,0.00,0.00
"USC00504104","2004-07-08",75.92,50.00,0.00,0.00,0.00
"USC00504104","2004-07-09",71.96,51.98,0.00,0.00,0.00
"USC00504104","2004-07-10",62.06,55.04,3.00,0.00,0.00
"USC00504104","2004-07-11",69.98,51.98,0.00,0.00,0.00
"USC00504104","2004-07-12",75.92,50.00,0.00,0.00,0.00
"USC00504104","2004-07-13",77.00,51.98,0.00,0.00,0.00
"USC00504104","2004-07-14",78.08,57.02,0.00,0.00,0.00
"USC00504104","2004-07-15",84.02,53.96,0.00,0.00,0.00
"USC00504104","2004-07-16",78.08,53.96,15.00,0.00,0.00
"USC00504104","2004-07-17",62.96,57.92,48.00,0.00,0.00
"USC00504104","2004-07-18",68.00,55.94,0.00,0.00,0.00
"USC00504104","2004-07-19",73.94,51.08,0.00,0.00,0.00
"USC00504104","2004-07-20",62.06,57.02,64.00,0.00,0.00
"USC00504104","2004-07-21",64.94,57.02,38.00,0.00,0.00
"USC00504104","2004-07-22",75.02,53.06,0.00,0.00,0.00
"USC00504104","2004-07-23",71.96,55.94,13.00,0.00,0.00
"USC00504104","2004-07-24",64.94,55.04,315.00,0.00,0.00
"USC00504104","2004-07-25",64.04,53.06,5.00,0.00,0.00
"USC00504104","2004-07-26",62.06,51.98,8.00,0.00,0.00
"USC00504104","2004-07-27",60.98,53.96,351.00,0.00,0.00
"USC00504104","2004-07-28",60.98,57.02,0.00,0.00,0.00
"USC00504104","2004-07-29",59.00,53.96,86.00,0.00,0.00
"USC00504104","2004-07-30",66.92,53.06,8.00,0.00,0.00
"USC00504104","2004-07-31",64.94,53.06,8.00,0.00,0.00
"USC00504104","2004-08-01",60.08,53.06,30.00,0.00,0.00
"USC00504104","2004-08-02",66.92,51.08,69.00,0.00,0.00
"USC00504104","2004-08-03",57.92,53.96,51.00,0.00,0.00
"USC00504104","2004-08-04",73.04,50.00,0.00,0.00,0.00
"USC00504104","2004-08-05",69.08,50.00,0.00,0.00,0.00
"USC00504104","2004-08-06",66.92,55.04,0.00,0.00,0.00
"USC00504104","2004-08-07",73.04,51.98,0.00,0.00,0.00
"USC00504104","2004-08-08",78.08,51.08,0.00,0.00,0.00
"USC00504104","2004-08-09",80.96,51.08,0.00,0.00,0.00
"USC00504104","2004-08-10",80.96,51.98,81.00,0.00,0.00
"USC00504104","2004-08-11",66.92,53.06,0.00,0.00,0.00
"USC00504104","2004-08-12",71.06,50.00,0.00,0.00,0.00
"USC00504104","2004-08-13",78.08,48.92,0.00,0.00,0.00
"USC00504104","2004-08-14",82.94,51.08,0.00,0.00,0.00
"USC00504104","2004-08-15",86.00,55.04,0.00,0.00,0.00
"USC00504104","2004-08-16",84.02,55.94,0.00,0.00,0.00
"USC00504104","2004-08-17",78.98,55.04,10.00,0.00,0.00
"USC00504104","2004-08-18",68.00,57.92,10.00,0.00,0.00
"USC00504104","2004-08-19",62.96,55.04,89.00,0.00,0.00
"USC00504104","2004-08-20",64.04,53.96,0.00,0.00,0.00
"USC00504104","2004-08-21",78.08,51.98,0.00,0.00,0.00
"USC00504104","2004-08-22",73.04,51.98,0.00,0.00,0.00
"USC00504104","2004-08-23",73.94,46.04,0.00,0.00,0.00
"USC00504104","2004-08-24",71.96,48.92,0.00,0.00,0.00
"USC00504104","2004-08-25",60.98,48.92,3.00,0.00,0.00
"USC00504104","2004-08-26",64.94,53.96,165.00,0.00,0.00
"USC00504104","2004-08-27",59.00,53.96,122.00,0.00,0.00
"USC00504104","2004-08-28",57.02,53.06,150.00,0.00,0.00
"USC00504104","2004-08-29",62.06,51.08,5.00,0.00,0.00
"USC00504104","2004-08-30",68.00,46.94,0.00,0.00,0.00
"USC00504104","2004-08-31",66.92,44.96,0.00,0.00,0.00
"USC00504104","2004-09-01",66.92,44.96,0.00,0.00,0.00
"USC00504104","2004-09-02",55.94,51.98,163.00,0.00,0.00
"USC00504104","2004-09-03",55.04,51.08,168.00,0.00,0.00
"USC00504104","2004-09-04",55.04,50.00,86.00,0.00,0.00
"USC00504104","2004-09-05",51.98,46.94,152.00,0.00,0.00
"USC00504104","2004-09-06",50.00,44.96,114.00,0.00,0.00
"USC00504104","2004-09-07",57.92,42.08,0.00,0.00,0.00
"USC00504104","2004-09-08",60.08,42.98,0.00,0.00,0.00
"USC00504104","2004-09-09",60.08,37.04,0.00,0.00,0.00
"USC00504104","2004-09-10",55.94,35.96,0.00,0.00,0.00
"USC00504104","2004-09-11",55.04,42.98,89.00,0.00,0.00
"USC00504104","2004-09-12",50.00,46.94,348.00,0.00,0.00
"USC00504104","2004-09-13",51.08,46.94,71.00,0.00,0.00
"USC00504104","2004-09-14",53.96,44.96,97.00,0.00,0.00
"USC00504104","2004-09-15",51.08,44.06,25.00,0.00,0.00
"USC00504104","2004-09-16",57.02,37.94,0.00,0.00,0.00
"USC00504104","2004-09-17",57.02,41.00,0.00,0.00,0.00
"USC00504104","2004-09-18",57.02,37.04,0.00,0.00,0.00
"USC00504104","2004-09-19",55.94,35.96,61.00,0.00,0.00
"USC00504104","2004-09-20",51.98,44.06,414.00,0.00,0.00
"USC00504104","2004-09-21",55.04,46.94,76.00,0.00,0.00
"USC00504104","2004-09-22",48.92,46.04,213.00,0.00,0.00
"USC00504104","2004-09-23",51.98,46.94,503.00,0.00,0.00
"USC00504104","2004-09-24",51.08,42.98,64.00,0.00,0.00
"USC00504104","2004-09-25",50.00,42.98,13.00,0.00,0.00
"USC00504104","2004-09-26",51.08,46.04,307.00,0.00,0.00
"USC00504104","2004-09-27",51.98,42.08,69.00,0.00,0.00
"USC00504104","2004-09-28",48.02,42.98,28.00,0.00,0.00
"USC00504104","2004-09-29",48.92,46.04,114.00,0.00,0.00
"USC00504104","2004-09-30",51.08,46.94,64.00,0.00,0.00
"USC00504104","2004-10-01",48.92,48.02,102.00,0.00,0.00
"USC00504104","2004-10-02",51.98,48.02,0.00,0.00,0.00
"USC00504104","2004-10-03",51.98,46.04,28.00,0.00,0.00
"USC00504104","2004-10-04",50.00,48.92,259.00,0.00,0.00
"USC00504104","2004-10-05",51.98,44.96,30.00,0.00,0.00
"USC00504104","2004-10-06",46.94,44.06,254.00,0.00,0.00
"USC00504104","2004-10-07",50.00,44.06,74.00,0.00,0.00
"USC00504104","2004-10-08",46.94,44.06,124.00,0.00,0.00
"USC00504104","2004-10-09",48.92,44.96,76.00,0.00,0.00
"USC00504104","2004-10-10",50.00,44.96,25.00,0.00,0.00
"USC00504104","2004-10-11",46.04,37.04,0.00,0.00,0.00
"USC00504104","2004-10-12",51.98,35.96,249.00,0.00,0.00
"USC00504104","2004-10-13",53.96,46.94,5.00,0.00,0.00
"USC00504104","2004-10-14",51.08,42.98,81.00,0.00,0.00
"USC00504104","2004-10-15",48.02,37.04,0.00,0.00,0.00
"USC00504104","2004-10-16",44.06,32.00,0.00,0.00,0.00
"USC00504104","2004-10-17",46.04,32.00,0.00,0.00,0.00
"USC00504104","2004-10-18",41.00,28.94,0.00,0.00,0.00
"USC00504104","2004-10-19",37.04,26.96,8.00,0.00,0.00
"USC00504104","2004-10-20",37.94,28.94,0.00,0.00,0.00
"USC00504104","2004-10-21",37.04,30.02,81.00,0.00,0.00
"USC00504104","2004-10-22",39.02,28.04,0.00,0.00,0.00
"USC00504104","2004-10-23",35.96,24.98,53.00,0.00,0.00
"USC00504104","2004-10-24",33.98,33.08,64.00,0.00,0.00
"USC00504104","2004-10-25",39.02,30.02,0.00,0.00,0.00
"USC00504104","2004-10-26",37.94,28.94,188.00,0.00,0.00
"USC00504104","2004-10-27",42.08,35.96,198.00,0.00,0.00
"USC00504104","2004-10-28",42.08,39.92,495.00,0.00,0.00
"USC00504104","2004-10-29",42.08,37.04,104.00,0.00,0.00
"USC00504104","2004-10-30",39.02,35.06,36.00,0.00,0.00
"USC00504104","2004-10-31",39.92,33.98,53.00,0.00,0.00
"USC00504104","2004-11-01",39.92,37.04,318.00,0.00,0.00
"USC00504104","2004-11-02",39.92,33.08,432.00,0.00,0.00
"USC00504104","2004-11-03",44.06,35.96,363.00,0.00,0.00
"USC00504104","2004-11-04",39.02,32.00,58.00,25.00,25.00
"USC00504104","2004-11-05",33.98,32.00,,0.00,0.00
"USC00504104","2004-11-06",35.96,32.00,0.00,0.00,0.00
"USC00504104","2004-11-07",32.00,28.04,0.00,0.00,0.00
"USC00504104","2004-11-08",35.96,24.98,51.00,23.00,25.00
"USC00504104","2004-11-09",35.96,28.94,0.00,0.00,25.00
"USC00504104","2004-11-10",33.08,26.96,0.00,0.00,25.00
"USC00504104","2004-11-11",30.92,28.04,0.00,0.00,25.00
"USC00504104","2004-11-12",37.94,30.02,30.00,0.00,0.00
"USC00504104","2004-11-13",42.08,37.04,79.00,0.00,0.00
"USC00504104","2004-11-14",42.98,37.94,76.00,0.00,0.00
"USC00504104","2004-11-15",42.08,39.92,168.00,0.00,0.00
"USC00504104","2004-11-16",41.00,35.06,66.00,0.00,0.00
"USC00504104","2004-11-17",37.94,35.06,33.00,0.00,0.00
"USC00504104","2004-11-18",37.94,35.06,213.00,0.00,0.00
"USC00504104","2004-11-19",41.00,33.98,160.00,0.00,0.00
"USC00504104","2004-11-20",44.06,39.92,292.00,0.00,0.00
"USC00504104","2004-11-21",42.08,37.04,20.00,0.00,0.00
"USC00504104","2004-11-22",39.02,35.96,0.00,0.00,0.00
"USC00504104","2004-11-23",37.04,33.98,119.00,0.00,0.00
"USC00504104","2004-11-24",39.92,33.08,81.00,0.00,0.00
"USC00504104","2004-11-25",37.04,35.06,188.00,0.00,0.00
"USC00504104","2004-11-26",37.04,33.98,81.00,0.00,0.00
"USC00504104","2004-11-27",37.94,35.06,,0.00,0.00
"USC00504104","2004-11-28",41.00,37.94,,0.00,0.00
"USC00504104","2004-11-29",39.92,37.04,,0.00,0.00
"USC00504104","2004-11-30",39.92,37.04,132.00,0.00,0.00
"USC00504104","2004-12-01",44.06,39.02,229.00,0.00,0.00
"USC00504104","2004-12-02",46.04,39.02,366.00,0.00,0.00
"USC00504104","2004-12-03",41.00,33.08,5.00,0.00,0.00
"USC00504104","2004-12-04",33.08,26.96,0.00,0.00,0.00
"USC00504104","2004-12-05",28.04,23.00,0.00,0.00,0.00
"USC00504104","2004-12-06",26.96,21.92,0.00,0.00,0.00
"USC00504104","2004-12-07",26.06,19.94,0.00,0.00,0.00
"USC00504104","2004-12-08",28.94,23.00,10.00,25.00,25.00
"USC00504104","2004-12-09",35.06,26.06,,,
"USC00504104","2004-12-10",35.06,32.00,,,76.00
"USC00504104","2004-12-11",35.96,32.00,330.00,0.00,0.00
"USC00504104","2004-12-12",42.08,30.92,5.00,0.00,0.00
"USC00504104","2004-12-13",37.04,30.02,229.00,0.00,0.00
"USC00504104","2004-12-14",39.02,32.00,28.00,0.00,0.00
"USC00504104","2004-12-15",41.00,32.00,124.00,0.00,0.00
"USC00504104","2004-12-16",44.06,39.92,478.00,0.00,0.00
"USC00504104","2004-12-17",42.98,41.00,201.00,0.00,0.00
"USC00504104","2004-12-18",44.06,32.00,452.00,76.00,76.00
"USC00504104","2004-12-19",35.06,32.00,23.00,0.00,76.00
"USC00504104","2004-12-20",35.96,30.92,3.00,0.00,51.00
"USC00504104","2004-12-21",33.08,,33.00,10.00,76.00
"USC00504104","2004-12-22",41.00,32.00,226.00,0.00,0.00
"USC00504104","2004-12-23",44.06,39.92,478.00,0.00,0.00
"USC00504104","2004-12-24",42.08,30.02,135.00,0.00,0.00
"USC00504104","2004-12-25",30.02,23.00,0.00,0.00,0.00
"USC00504104","2004-12-26",28.94,19.94,0.00,0.00,0.00
"USC00504104","2004-12-27",33.08,24.08,,,
"USC00504104","2004-12-28",33.98,26.96,,178.00,203.00
"USC00504104","2004-12-29",28.04,17.06,0.00,0.00,152.00
"USC00504104","2004-12-30",17.96,14.00,0.00,0.00,152.00
"USC00504104","2004-12-31",23.00,12.92,0.00,0.00,127.00
"USC00504104","2005-01-01",24.08,15.98,0.00,0.00,102.00
"USC00504104","2005-01-02",24.08,15.08,0.00,0.00,102.00
"USC00504104","2005-01-03",26.96,21.92,0.00,0.00,76.00
"USC00504104","2005-01-04",32.00,26.96,23.00,0.00,76.00
"USC00504104","2005-01-05",37.04,28.04,20.00,0.00,76.00
"USC00504104","2005-01-06",33.98,21.92,0.00,0.00,76.00
"USC00504104","2005-01-07",30.02,19.94,0.00,0.00,76.00
"USC00504104","2005-01-08",37.94,26.96,0.00,0.00,76.00
"USC00504104","2005-01-09",28.04,21.02,28.00,20.00,102.00
"USC00504104","2005-01-10",28.94,15.98,25.00,43.00,152.00
"USC00504104","2005-01-11",17.96,3.92,0.00,0.00,152.00
"USC00504104","2005-01-12",6.98,-0.04,0.00,0.00,152.00
"USC00504104","2005-01-13",14.00,1.94,0.00,3.00,152.00
"USC00504104","2005-01-14",19.04,14.00,8.00,28.00,178.00
"USC00504104","2005-01-15",21.92,15.08,0.00,0.00,178.00
"USC00504104","2005-01-16",24.98,14.00,267.00,323.00,432.00
"USC00504104","2005-01-17",26.06,19.94,173.00,206.00,584.00
"USC00504104","2005-01-18",21.02,19.04,178.00,165.00,635.00
"USC00504104","2005-01-19",23.00,17.96,36.00,43.00,635.00
"USC00504104","2005-01-20",30.02,21.92,5.00,5.00,610.00
"USC00504104","2005-01-21",37.04,21.92,89.00,0.00,508.00
"USC00504104","2005-01-22",37.94,33.08,28.00,0.00,432.00
"USC00504104","2005-01-23",35.96,30.02,23.00,0.00,406.00
"USC00504104","2005-01-24",35.96,33.08,43.00,0.00,381.00
"USC00504104","2005-01-25",35.06,30.02,51.00,13.00,406.00
"USC00504104","2005-01-26",33.98,32.00,,,
"USC00504104","2005-01-27",33.08,30.92,,,508.00
"USC00504104","2005-01-28",33.08,30.92,76.00,76.00,533.00
"USC00504104","2005-01-29",33.08,32.00,127.00,0.00,457.00
"USC00504104","2005-01-30",37.94,33.08,163.00,0.00,406.00
"USC00504104","2005-01-31",37.94,33.98,150.00,0.00,356.00
"USC00504104","2005-02-01",35.96,24.08,178.00,185.00,559.00
"USC00504104","2005-02-02",33.98,24.98,51.00,48.00,584.00
"USC00504104","2005-02-03",32.00,24.98,91.00,165.00,660.00
"USC00504104","2005-02-04",24.98,14.00,0.00,0.00,660.00
"USC00504104","2005-02-05",19.94,10.94,0.00,0.00,584.00
"USC00504104","2005-02-06",19.94,8.96,30.00,23.00,584.00
"USC00504104","2005-02-07",32.00,19.94,94.00,30.00,559.00
"USC00504104","2005-02-08",35.96,32.00,221.00,0.00,508.00
"USC00504104","2005-02-09",35.96,32.00,94.00,0.00,457.00